Home   Weather   Amravati   Past weeks

Flag for India Past Weather in Amravati, Maharashtra, India — Yesterday and Last 2 Weeks

64 °F


Feels Like: 64 °F
Forecast: 64 / 86 °F
Wind: 2 mph from North

Location: Nagpur Sonegaon

Current Time: Oct 28, 2016 at 2:17:07 AM

Latest Report: Oct 28, 2016 at 1:30 AM

Visibility: 2 mi

Pressure: 29.95 "Hg

Humidity: 83%

Dew Point: 59 °F

Location of AmravatiLocation

Past Weather in Amravati — Graph


Amravati Temperature Yesterday

Maximum temperature yesterday: 91 °F (at 1:30 PM)
Minimum temperature yesterday: 63 °F (at 6:30 AM)
Average temperature yesterday: 76 °F

High & Low Weather Summary for the Past Weeks

High95 °F (Oct 14, 3:30 PM)100% (Oct 13, 5:30 AM)30.04 "Hg (Oct 13, 5:30 AM)
Low61 °F (Oct 13, 4:30 AM)24% (Oct 22, 2:30 PM)29.62 "Hg (Oct 23, 6:00 AM)
Average76 °F65%29.88 "Hg
* Reported Oct 13 12:30 AM — Oct 28 1:00 AM, Amravati, Weather by CustomWeather, © 2016

Note: Actual official high and low records may vary slightly from our data, if they occured in-between our weather recording intervals... More about our weather records


Amravati Weather History for the Previous 24 Hours

Scroll right to see more
Time TempWeatherWind HumidityBarometerVisibility
1:00 AM
Fri, Oct 28
66 °FHaze.5 mph78%29.95 "Hg2 mi
12:30 AM66 °FHaze.3 mph78%29.95 "Hg2 mi
12:00 AM66 °FHaze.3 mph78%29.95 "Hg2 mi
11:30 PM
Thu, Oct 27
66 °FHaze.2 mph78%29.95 "Hg2 mi
10:30 PM68 °FHaze.No wind73%29.95 "Hg2 mi
10:00 PM68 °FHaze.3 mph73%29.95 "Hg2 mi
9:30 PM70 °FHaze.No wind69%29.95 "Hg2 mi
9:00 PM72 °FHaze.No wind65%29.95 "Hg2 mi
8:30 PM77 °FHaze.No wind54%29.95 "Hg2 mi
8:00 PM81 °FHaze.No wind48%29.95 "Hg2 mi
7:30 PM81 °FHaze.3 mph48%29.95 "Hg2 mi
6:30 PM84 °FHaze.No wind37%29.92 "Hg2 mi
6:00 PM84 °FHaze.No wind35%29.92 "Hg2 mi
5:30 PM86 °FHaze.2 mph35%29.92 "Hg2 mi
5:00 PM88 °FHaze.3 mph31%29.89 "Hg3 mi
4:30 PM86 °FHaze.5 mph33%29.89 "Hg3 mi
4:00 PM88 °FHaze.6 mph31%29.89 "Hg3 mi
3:30 PM90 °FHaze.7 mph31%N/A3 mi
3:00 PM88 °FHaze.6 mph33%29.92 "Hg3 mi
2:30 PM88 °FHaze.6 mph31%29.92 "Hg3 mi
2:00 PM90 °FHaze.7 mph33%29.92 "Hg3 mi
1:30 PM91 °FHaze.6 mph30%29.95 "Hg3 mi
1:00 PM90 °FHaze.6 mph29%29.95 "Hg3 mi
12:30 PM88 °FHaze.6 mph31%29.95 "Hg3 mi
12:00 PM88 °FHaze.6 mph31%29.98 "Hg3 mi
11:30 AM88 °FHaze.5 mph33%30.01 "Hg3 mi
11:00 AM86 °FHaze.No wind40%30.01 "Hg3 mi
10:30 AM84 °FHaze.3 mph43%30.04 "Hg3 mi
10:00 AM82 °FHaze.2 mph48%30.04 "Hg3 mi
9:30 AM81 °FHaze.No wind48%30.04 "Hg3 mi
9:00 AM77 °FHaze.2 mph61%30.01 "Hg2 mi
8:30 AM73 °FHaze.No wind65%30.01 "Hg2 mi
8:00 AM66 °FHaze.No wind83%30.01 "Hg1 mi
7:30 AM64 °FHaze.2 mph83%30.01 "Hg1 mi
7:00 AM63 °FHaze.No wind88%30.01 "Hg1 mi
6:30 AM63 °FHaze.3 mph88%29.98 "Hg1 mi
6:00 AM64 °FHaze.No wind83%29.95 "Hg1 mi
5:00 AM64 °FHaze.3 mph94%29.92 "Hg2 mi
4:30 AM66 °FHaze.3 mph88%29.92 "Hg2 mi
4:00 AM66 °FHaze.5 mph88%29.92 "Hg2 mi
3:30 AM66 °FHaze.5 mph88%29.92 "Hg2 mi
3:00 AM66 °FHaze.5 mph88%29.92 "Hg2 mi
2:30 AM66 °FHaze.5 mph88%29.92 "Hg2 mi
Weather by CustomWeather, © 2016

See weather overviewHow to use our weather pages